Regional Weather Roundup
Issued by NWS Raleigh/Durham, NC

Home | Current Version | Previous Version | Text Only | Print | Product List | Glossary On
Versions: 1 2 3 4 5 6 7 8 9 10 11 12 13 14 15 16 17 18 19 20 21 22 23 24 25 26 27 28
000
ASUS42 KRAH 270010
RWRRAH
NORTH CAROLINA WEATHER ROUNDUP
NATIONAL WEATHER SERVICE RALEIGH NC
800 PM EDT MON SEP 26 2016

NOTE: "FAIR" INDICATES FEW OR NO CLOUDS BELOW 12,000 FEET WITH NO
SIGNIFICANT WEATHER AND/OR OBSTRUCTIONS TO VISIBILITY.

NCZ001-053-055-056-065-067-270100-
WESTERN NORTH CAROLINA

CITY           SKY/WX    TMP DP  RH WIND       PRES   REMARKS
ASHEVILLE      LGT RAIN  66  63  90 CALM      30.12F
JEFFERSON      RAIN      62  60  93 CALM      30.12F
HICKORY        RAIN      70  69  97 S3        30.06R FOG
RUTHERFORDTON  CLOUDY    70  70 100 NE3       30.06R
MOUNT AIRY     RAIN      67  66  94 NW3       30.08R
BOONE          LGT RAIN  63  62  97 W3        30.13F
$$

NCZ021-022-025-041-071-084-088-270100-
CENTRAL NORTH CAROLINA

CITY           SKY/WX    TMP DP  RH WIND       PRES   REMARKS
CHARLOTTE      MOCLDY    75  68  78 S6        30.03R
GREENSBORO     HVY RAIN  68  67  96 SE7       30.05S FOG
WINSTON-SALEM  LGT RAIN  67  65  93 SE5       30.05S
RALEIGH-DURHAM PTCLDY    72  66  81 SE7       30.05R
FORT BRAGG     PTCLDY    75  69  81 CALM      30.03S
FAYETTEVILLE   PTCLDY    75  69  81 SE3       30.03S
BURLINGTON     CLOUDY    73  69  87 CALM      30.04R
LAURINBURG     PTCLDY    76  70  82 CALM      30.04R
$$

NCZ011-015-027-028-043-044-047-080-103-270100-
NORTHEASTERN NORTH CAROLINA

CITY           SKY/WX    TMP DP  RH WIND       PRES   REMARKS
ROCKY MT-WILSO MOCLDY    71  66  84 SE3       30.05R
GREENVILLE     MOCLDY    73  66  78 SE6       30.07S
WASHINGTON     CLOUDY    72  66  82 CALM      30.06S
ELIZABETH CITY CLOUDY    73  64  73 S7        30.06R
MANTEO         MOCLDY    73  65  76 S6        30.06S
CAPE HATTERAS  CLEAR     78  64  61 S8        30.07R
$$

NCZ078-087-090-091-093-098-101-270100-
SOUTHEASTERN NORTH CAROLINA

CITY           SKY/WX    TMP DP  RH WIND       PRES   REMARKS
LUMBERTON      CLOUDY    77  69  76 SE6       30.03R
GOLDSBORO      CLEAR     74  69  86 E6        30.03R
KINSTON        MOCLDY    75  66  73 SE5       30.06S
KENANSVILLE    CLOUDY    73  70  88 CALM      30.06R FOG
NEW BERN       CLOUDY    74  66  76 CALM      30.07R
CHERRY POINT   CLEAR     72  68  87 E3        30.07R
BEAUFORT       PTCLDY    74  69  85 CALM      30.06R
JACKSONVILLE   CLOUDY    75  66  73 SE5       30.05R
WILMINGTON     PTCLDY    75  67  76 E3        30.04S
$$





USA.gov is the U.S. government's official web portal to all federal, state and local government web resources and services.